Tracking 29892 objects as of 21-Nov-2024
HD Live streaming from Space Station
objects crossing your sky now

YAOGAN-36 04C

Track YAOGAN-36 04C now!
10-day predictions


NORAD ID: 54750
Int'l Code: 2022-171E
Perigee: 503.2 km
Apogee: 508.5 km
Inclination: 35.0 °
Period: 94.6 minutes
Semi major axis: 6876 km
RCS: Unknown
Launch date: December 14, 2022
Source: People's Republic of China (PRC)
Launch site: Xichang Space Center, China (XSC)
Your satellite tracking list
Your tracking list is empty




NASA's NSSDC Master Catalog

Two Line Element Set (TLE):
1 54750U 22171E   24326.09973387  .00023035  00000-0  97260-3 0  9997
2 54750  34.9908 202.5066 0003853 349.2390  10.8242 15.22369237107911
Source of the keplerian elements: AFSPC